Regional Weather Roundup
Issued by NWS Cleveland, OH

Home | Current Version | Previous Version | Text Only | Print | Product List | Glossary On
Versions: 1 2 3 4 5 6 7 8 9 10 11 12 13 14 15 16 17 18 19 20 21 22 23 24 25 26 27 28 29 30 31 32 33 34 35 36 37 38 39 40 41 42 43 44 45 46 47 48 49 50
216
ASUS41 KCLE 270212
RWRCLE
OHIO REGIONAL WEATHER ROUNDUP
NATIONAL WEATHER SERVICE WILMINGTON, OH
1000 PM EDT FRI MAY 26 2017

NOTE: "FAIR" INDICATES FEW OR NO CLOUDS BELOW 12,000 FEET WITH NO
SIGNIFICANT WEATHER AND/OR OBSTRUCTIONS TO VISIBILITY.

OHZ001>008-015>018-024>027-034-035-043-044-270300-
   NORTHWEST OHIO

CITY           SKY/WX    TMP DP  RH WIND       PRES   REMARKS
DEFIANCE       LGT RAIN  62  59  90 NE6       29.85S
FINDLAY        FAIR      65  55  70 SE5       29.85S
TOLEDO EXPRESS FAIR      63  59  87 NE3       29.86F
TOLEDO EXEC    FAIR      64  57  78 E6        29.88R
LIMA           MOCLDY    65  59  81 SE5       29.87R
$$

OHZ009>014-019>023-028>033-038-089-270300-
   NORTHEAST OHIO

CITY           SKY/WX    TMP DP  RH WIND       PRES   REMARKS
CLE-HOPKINS    FAIR      64  51  62 E3        29.91S
CLE-LAKEFRONT  MOCLDY    62  52  69 CALM      29.89S
CUY CO. ARPT   MOCLDY    59  54  82 SE5       29.91S
LORAIN-ELYRIA  FAIR      59  52  77 E3        29.90S
ASHTABULA      FAIR      54  53  97 CALM      29.92R
AKRON-CANTON   MOCLDY    60  53  77 CALM      29.92S
WOOSTER        FAIR      58  56  93 E6        29.91S
MANSFIELD      FAIR      58  56  93 E5        29.89F
YOUNGSTOWN     CLOUDY    57  52  83 CALM      29.92R
$$

OHZ042-051>053-060>062-070>072-077>081-270300-
  SOUTHWEST OHIO

CITY           SKY/WX    TMP DP  RH WIND       PRES   REMARKS
CINC-COVINGTON CLOUDY    72  62  71 SE9       29.85F
CINC-LUNKEN    CLOUDY    70  65  84 SW5       29.86S
HAMILTON       CLOUDY    74  61  63 S6        29.85S
DAYTON         LGT RAIN  72  56  57 SE7       29.85F
WRIGHT-PAT AFB LGT RAIN  72  59  64 CALM      29.86R
DAYTON GENERAL MOCLDY    71  58  63 S6        29.85S
WILMINGTON     FAIR      68  60  75 S6        29.87S
$$

OHZ036-037-039>041-045>050-054>059-063>069-073>076-082>088-270300-
  CENTRAL AND SOUTHEAST OHIO

CITY           SKY/WX    TMP DP  RH WIND       PRES   REMARKS
COLUMBUS       MOCLDY    66  57  72 E5        29.86F
OSU AIRPORT    FAIR      64  58  80 E5        29.86F
BOLTON FIELD   FAIR      66  59  78 SE3       29.87S
RICKENBACK AFB FAIR      65  59  80 SE6       29.86S
NEWARK         FAIR      65  56  72 CALM      29.88F
MARION         FAIR      63  55  75 CALM      29.88S
LANCASTER      FAIR      63  57  81 CALM      29.88F
ZANESVILLE     FAIR      63  58  83 SE3       29.89F
NEW PHILLY     FAIR      62  58  86 SE3       29.92R
$$




USA.gov is the U.S. government's official web portal to all federal, state and local government web resources and services.